TimeGMT,TemperatureF,Dew PointF,Humidity,Sea Level PressureIn,VisibilityMPH,Wind Direction,Wind SpeedMPH,Gust SpeedMPH,PrecipitationIn,Events,Conditions,WindDirDegrees,DateUTC
12:00 AM,38,35,87,28.94,,SSE,22.4,,,,,160,2014-02-25 00:00:00
1:00 AM,38,35,83,28.92,,SSE,22.4,,,,,160,2014-02-25 01:00:00
2:00 AM,38,34,81,28.90,,SSE,17.9,,,,,150,2014-02-25 02:00:00
3:00 AM,38,34,81,28.86,,SSE,22.4,,,,,150,2014-02-25 03:00:00
4:00 AM,38,37,93,28.84,,SSE,24.6,,,,,160,2014-02-25 04:00:00
5:00 AM,38,37,95,28.83,,South,22.4,,,,,170,2014-02-25 05:00:00
6:00 AM,38,37,96,28.84,9,South,17.9,,,Rain,Rain,170,2014-02-25 06:00:00
7:00 AM,38,37,97,28.84,9,South,17.9,,,Rain,Light Rain Showers,170,2014-02-25 07:00:00
8:00 AM,39,38,96,28.87,19,South,15.7,,,Rain,Light Rain Showers,180,2014-02-25 08:00:00
8:00 AM,39.2,39.2,100,28.82,6.2,South,16.1,-,N/A,,Mostly Cloudy,180,2014-02-25 08:00:00
8:30 AM,39.2,39.2,100,28.85,6.2,South,15.0,-,N/A,,Mostly Cloudy,180,2014-02-25 08:30:00
9:00 AM,40,40,100,28.90,9,South,13.4,,,Rain,Light Rain Showers,180,2014-02-25 09:00:00
9:00 AM,41.0,41.0,100,28.85,6.2,South,12.7,-,N/A,Rain,Light Rain Showers,180,2014-02-25 09:00:00
9:30 AM,41.0,39.2,93,28.85,6.2,South,13.8,-,N/A,Rain,Light Rain Showers,180,2014-02-25 09:30:00
10:00 AM,41,40,93,28.90,5,South,15.7,,,Rain,Light Rain Showers,190,2014-02-25 10:00:00
10:00 AM,41.0,39.2,93,28.85,5.0,South,16.1,-,N/A,Rain,Light Rain Showers,190,2014-02-25 10:00:00
10:30 AM,41.0,39.2,93,28.88,5.6,SW,19.6,36.8,N/A,Rain,Light Rain Showers,220,2014-02-25 10:30:00
11:00 AM,41,39,88,28.96,19,SW,24.6,,,Rain,Light Rain Showers,230,2014-02-25 11:00:00
11:00 AM,41.0,39.2,93,28.94,6.2,SW,25.3,36.8,N/A,Rain,Light Rain Showers,230,2014-02-25 11:00:00
11:30 AM,41.0,39.2,93,28.97,6.2,WSW,20.7,-,N/A,Rain,Light Rain Showers,240,2014-02-25 11:30:00
12:00 PM,41,39,92,29.03,12,WSW,26.8,,,Hail,Light Hail Showers,250,2014-02-25 12:00:00
12:00 PM,41.0,39.2,93,29.00,6.2,WSW,26.5,40.3,N/A,,Scattered Clouds,250,2014-02-25 12:00:00
12:30 PM,41.0,39.2,93,29.03,6.2,WSW,27.6,39.1,N/A,Rain,Light Rain Showers,240,2014-02-25 12:30:00
1:00 PM,41,39,91,29.08,6,SW,17.9,,,Rain,Light Rain Showers,230,2014-02-25 13:00:00
1:00 PM,41.0,39.2,93,29.06,5.6,SW,18.4,-,N/A,Rain,Light Rain Showers,230,2014-02-25 13:00:00
1:30 PM,42.8,37.4,81,29.09,6.2,WSW,25.3,39.1,N/A,,Scattered Clouds,240,2014-02-25 13:30:00
2:00 PM,44,37,68,29.12,16,WSW,22.4,,,Rain,Light Rain Showers,240,2014-02-25 14:00:00
2:00 PM,42.8,37.4,81,29.09,6.2,WSW,23.0,34.5,N/A,,Scattered Clouds,240,2014-02-25 14:00:00
2:30 PM,44.6,33.8,66,29.12,6.2,WSW,23.0,36.8,N/A,,Scattered Clouds,240,2014-02-25 14:30:00
3:00 PM,44,36,64,29.16,16,WSW,26.8,,,,Partly Cloudy,240,2014-02-25 15:00:00
3:00 PM,44.6,35.6,71,29.12,6.2,WSW,26.5,-,N/A,,Mostly Cloudy,240,2014-02-25 15:00:00
3:30 PM,44.6,35.6,71,29.15,6.2,WSW,27.6,-,N/A,Rain,Light Rain Showers,240,2014-02-25 15:30:00
4:00 PM,44,34,58,29.18,22,WSW,24.6,,,Rain,Light Rain Showers,240,2014-02-25 16:00:00
4:00 PM,44.6,33.8,66,29.15,6.2,WSW,25.3,36.8,N/A,,Scattered Clouds,240,2014-02-25 16:00:00
4:30 PM,42.8,33.8,70,29.18,6.2,WSW,21.9,33.4,N/A,,Scattered Clouds,240,2014-02-25 16:30:00
5:00 PM,43,35,64,29.22,22,SW,17.9,,,,Mostly Cloudy,230,2014-02-25 17:00:00
5:00 PM,42.8,35.6,76,29.18,6.2,SW,18.4,-,N/A,,Scattered Clouds,230,2014-02-25 17:00:00
6:00 PM,40,36,82,29.27,12,WSW,17.9,,,Rain,Light Rain Showers,240,2014-02-25 18:00:00
6:00 PM,41.0,37.4,87,29.24,6.2,WSW,18.4,32.2,N/A,Rain,Light Rain Showers,240,2014-02-25 18:00:00
6:30 PM,41.0,35.6,81,29.27,6.2,WSW,20.7,-,N/A,Rain,Light Rain Showers,240,2014-02-25 18:30:00
7:00 PM,39,36,83,29.31,19,SW,11.2,,,Rain,Light Rain Showers,230,2014-02-25 19:00:00
7:00 PM,39.2,35.6,87,29.27,6.2,SW,11.5,-,N/A,,Scattered Clouds,230,2014-02-25 19:00:00
8:00 PM,39,36,84,29.34,,SSW,13.4,,,,,210,2014-02-25 20:00:00
9:00 PM,39,36,84,29.37,,SW,13.4,,,,,230,2014-02-25 21:00:00
10:00 PM,39,36,85,29.39,,SW,11.2,,,,,220,2014-02-25 22:00:00
11:00 PM,40,36,82,29.42,,SW,15.7,,,,,230,2014-02-25 23:00:00